Home   Weather   Rapid City   Past weeks
Flag for USA

Past Weather in Rapid City, South Dakota, USA — Yesterday and Last 2 Weeks

Now
62 °F

Sunny.


Feels Like: 62 °F
Forecast: 76 / 42 °F
Wind: 10 mph from South

Location: Ellsworth Air Force Base

Current Time: Oct 17, 2019 at 5:24:33 pm

Latest Report: Oct 17, 2019 at 4:56 pm


Visibility: 10 mi

Pressure: 29.50 "Hg (26.29 "Hg at 977m altitude)

Humidity: 45%

Dew Point: 40 °F

Location of Rapid CityLocation

Past Weather in Rapid City — Graph

°F

Rapid City Temperature Yesterday

Maximum temperature yesterday: 67 °F (at 3:56 pm)
Minimum temperature yesterday: 33 °F (at 6:56 am)
Average temperature yesterday: 49 °F

High & Low Weather Summary for the Past Weeks

 TemperatureHumidityPressure
High76 °F (Oct 8, 3:56 pm)100% (Oct 2, 4:11 pm)30.38 "Hg (Oct 2, 4:11 pm)
Low21 °F (Oct 11, 6:08 am)22% (Oct 7, 4:56 pm)29.50 "Hg (Oct 17, 2:56 pm)
Average43 °F71%30.03 "Hg
* Reported Oct 2 3:56 pm — Oct 17 3:56 pm, Rapid City. Weather by CustomWeather, © 2019

Note: Actual official high and low records may vary slightly from our data, if they occured in-between our weather recording intervals... More about our weather records

Advertising

Rapid City Weather History for the Previous 24 Hours

Scroll right to see more
 ConditionsComfort  
Time TempWeatherWind HumidityBarometerVisibility
3:56 pm
Thu, Oct 17
66 °FSunny.8 mph39%29.50 "Hg10 mi
2:56 pm66 °FPassing clouds.15 mph40%29.50 "Hg10 mi
1:56 pm70 °FPartly sunny.13 mph31%29.52 "Hg10 mi
12:56 pm74 °FSunny.14 mph27%29.55 "Hg10 mi
11:56 am70 °FPartly sunny.15 mph37%29.59 "Hg10 mi
10:56 am61 °FSunny.9 mph50%29.65 "Hg10 mi
9:56 am59 °FSunny.9 mph51%29.68 "Hg10 mi
7:56 am44 °FSunny.3 mph82%29.75 "Hg10 mi
6:56 am41 °FSunny.3 mph82%29.76 "Hg10 mi
5:56 am44 °FClear.No wind68%29.76 "Hg10 mi
3:56 am44 °FClear.3 mph70%29.77 "Hg10 mi
2:56 am43 °FClear.3 mph79%29.81 "Hg10 mi
1:56 am46 °FClear.No wind75%29.82 "Hg10 mi
12:56 am46 °FClear.5 mph81%29.84 "Hg10 mi
11:56 pm
Wed, Oct 16
47 °FClear.No wind83%29.86 "Hg10 mi
10:56 pm47 °FClear.5 mph87%29.89 "Hg10 mi
9:56 pm47 °FClear.6 mph88%29.93 "Hg10 mi
8:56 pm42 °FClear.7 mph96%29.97 "Hg10 mi
7:56 pm44 °FClear.3 mph84%29.97 "Hg10 mi
6:56 pm57 °FClear.3 mph49%29.95 "Hg10 mi
5:56 pm62 °FClear.6 mph42%29.93 "Hg10 mi
Weather by CustomWeather, © 2019

See weather overview